{"data":{"norad_id":62283,"epoch":"2026-05-24T23:12:23.274720Z","epoch_age_seconds":81099,"freshness":"FRESH","line1":"1 62283U 24237S   26144.96693605  .00012660  00000+0  46866-3 0  9997","line2":"2 62283  43.0007 134.6779 0001367 302.0851  57.9868 15.27590219 82981","mean_motion":15.27590219,"eccentricity":0.0001367,"inclination_deg":43.0007,"raan_deg":134.6779,"arg_perigee_deg":302.0851,"mean_anomaly_deg":57.9868,"bstar":0.00046866,"rev_number":8298,"period_min":94.266118104806,"perigee_km":482.08057689155,"apogee_km":483.95641680439,"semimajor_km":6861.155496848,"source":"CELESTRAK","updated_at":"2026-05-25T13:38:19.645300Z"}}